When you browse on this site, cookies collect data to enhance your experience and personalize the content and advertising you see.
Visit our Privacy Policy to learn more. By continuing to use the site, you agree to this use of cookies and data.
  • In Lithuania
  • List of Countries
  • For 7 days
  • Water Temperature
  • Weather Map
  • Weather Widgets
  • user-avatar
    Login

    Hourly Weather Elbasan

    Today, 27 May, Wednesday

    Time Temperature Precipitation Wind Pressure Humidity
    00:00 +12°C° 0 mm 2 mps 737 mmHg 75%
    01:00 +12°C° 0 mm 2 mps 737 mmHg 75%
    02:00 +12°C° 0 mm 2 mps 737 mmHg 75%
    03:00 +12°C° 0 mm 2 mps 737 mmHg 76%
    04:00 +10°C° 0 mm 2 mps 737 mmHg 76%
    05:00 +13°C° 0 mm 2 mps 737 mmHg 73%
    06:00 +14°C° 0 mm 2 mps 737 mmHg 69%
    07:00 +15°C° 0 mm 2 mps 737 mmHg 66%
    08:00 +17°C° 0 mm 2 mps 738 mmHg 60%
    09:00 +18°C° 0 mm 2 mps 738 mmHg 54%
    10:00 +19°C° 0 mm 2 mps 738 mmHg 48%
    11:00 +20°C° 0 mm 2 mps 738 mmHg 47%
    12:00 +21°C° 0 mm 2 mps 738 mmHg 45%
    13:00 +21°C° 0 mm 2 mps 738 mmHg 44%
    14:00 +21°C° 0.2 mm 2 mps 737 mmHg 46%
    15:00 +21°C° 0.2 mm 2 mps 737 mmHg 49%
    16:00 +20°C° 0.2 mm 2 mps 737 mmHg 52%
    17:00 +19°C° 0.4 mm 2 mps 737 mmHg 59%
    18:00 +17°C° 0.4 mm 2 mps 737 mmHg 66%
    19:00 +15°C° 0.4 mm 1 mps 738 mmHg 73%
    20:00 +15°C° 0.1 mm 1 mps 738 mmHg 74%
    21:00 +14°C° 0.1 mm 2 mps 738 mmHg 76%
    22:00 +13°C° 0.1 mm 2 mps 738 mmHg 78%
    23:00 +13°C° 0 mm 2 mps 738 mmHg 78%

    Tomorrow, 28 May, Thursday

    Time Temperature Precipitation Wind Pressure Humidity
    00:00 +13°C° 0 mm 2 mps 738 mmHg 78%
    01:00 +12°C° 0 mm 2 mps 738 mmHg 78%
    02:00 +12°C° 0 mm 2 mps 738 mmHg 78%
    03:00 +12°C° 0 mm 2 mps 738 mmHg 78%
    04:00 +10°C° 0 mm 2 mps 737 mmHg 77%
    05:00 +13°C° 0 mm 1 mps 737 mmHg 72%
    06:00 +15°C° 0 mm 1 mps 738 mmHg 67%
    07:00 +18°C° 0 mm 1 mps 738 mmHg 62%
    08:00 +19°C° 0 mm 1 mps 738 mmHg 57%
    09:00 +21°C° 0 mm 1 mps 738 mmHg 52%
    10:00 +22°C° 0 mm 1 mps 738 mmHg 47%
    11:00 +21°C° 0.5 mm 2 mps 737 mmHg 48%
    12:00 +21°C° 0.5 mm 3 mps 737 mmHg 50%
    13:00 +21°C° 0.5 mm 3 mps 736 mmHg 52%
    14:00 +21°C° 0.6 mm 4 mps 736 mmHg 54%
    15:00 +20°C° 0.6 mm 4 mps 736 mmHg 57%
    16:00 +20°C° 0.6 mm 4 mps 736 mmHg 59%
    17:00 +18°C° 0.2 mm 3 mps 736 mmHg 67%
    18:00 +17°C° 0.2 mm 2 mps 736 mmHg 74%
    19:00 +15°C° 0.2 mm 1 mps 736 mmHg 82%
    20:00 +15°C° 0.1 mm 1 mps 736 mmHg 84%
    21:00 +14°C° 0.1 mm 1 mps 736 mmHg 85%
    22:00 +13°C° 0.1 mm 1 mps 736 mmHg 87%
    23:00 +13°C° 0 mm 1 mps 736 mmHg 87%

    Day after tomorrow, 29 May, Friday

    Time Temperature Precipitation Wind Pressure Humidity
    00:00 +13°C° 0 mm 1 mps 736 mmHg 86%
    01:00 +13°C° 0 mm 1 mps 736 mmHg 86%
    02:00 +13°C° 0 mm 1 mps 736 mmHg 85%
    03:00 +13°C° 0 mm 1 mps 735 mmHg 84%
    04:00 +13°C° 0 mm 1 mps 735 mmHg 83%
    05:00 +14°C° 0.1 mm 1 mps 735 mmHg 79%
    06:00 +16°C° 0.1 mm 1 mps 735 mmHg 74%
    07:00 +18°C° 0.1 mm 1 mps 735 mmHg 69%
    08:00 +19°C° 0.6 mm 1 mps 735 mmHg 66%
    09:00 +20°C° 0.6 mm 1 mps 735 mmHg 62%
    10:00 +20°C° 0.6 mm 2 mps 735 mmHg 59%
    11:00 +20°C° 1.3 mm 2 mps 735 mmHg 60%
    12:00 +20°C° 1.3 mm 3 mps 735 mmHg 61%
    13:00 +20°C° 1.3 mm 3 mps 734 mmHg 62%
    14:00 +20°C° 1.2 mm 3 mps 734 mmHg 64%
    15:00 +19°C° 1.2 mm 3 mps 734 mmHg 66%
    16:00 +19°C° 1.2 mm 3 mps 734 mmHg 68%
    17:00 +18°C° 0.6 mm 2 mps 734 mmHg 74%
    18:00 +16°C° 0.6 mm 2 mps 734 mmHg 80%
    19:00 +14°C° 0.6 mm 1 mps 734 mmHg 86%
    20:00 +14°C° 0.1 mm 1 mps 734 mmHg 87%
    21:00 +13°C° 0.1 mm 1 mps 735 mmHg 88%
    22:00 +13°C° 0.1 mm 1 mps 735 mmHg 89%
    23:00 +12°C° 0.1 mm 1 mps 735 mmHg 89%

    30 May, Saturday

    Time Temperature Precipitation Wind Pressure Humidity
    00:00 +12°C° 0.1 mm 1 mps 734 mmHg 89%
    01:00 +12°C° 0.1 mm 1 mps 734 mmHg 88%
    02:00 +12°C° 0 mm 1 mps 734 mmHg 88%
    03:00 +11°C° 0 mm 1 mps 734 mmHg 87%
    04:00 +10°C° 0 mm 2 mps 734 mmHg 87%
    05:00 +13°C° 0 mm 1 mps 734 mmHg 82%
    06:00 +14°C° 0 mm 1 mps 735 mmHg 77%
    07:00 +16°C° 0 mm 1 mps 735 mmHg 72%
    08:00 +18°C° 0.2 mm 1 mps 735 mmHg 67%
    09:00 +19°C° 0.2 mm 1 mps 735 mmHg 63%
    10:00 +20°C° 0.2 mm 1 mps 735 mmHg 58%
    11:00 +21°C° 0.6 mm 1 mps 735 mmHg 59%
    12:00 +20°C° 0.6 mm 2 mps 735 mmHg 59%
    13:00 +20°C° 0.6 mm 2 mps 735 mmHg 60%
    14:00 +20°C° 0.9 mm 3 mps 734 mmHg 63%
    15:00 +19°C° 0.9 mm 3 mps 734 mmHg 67%
    16:00 +19°C° 0.9 mm 3 mps 734 mmHg 71%
    17:00 +17°C° 0.4 mm 2 mps 734 mmHg 75%
    18:00 +16°C° 0.4 mm 2 mps 734 mmHg 80%
    19:00 +14°C° 0.4 mm 1 mps 734 mmHg 85%
    20:00 +14°C° 0 mm 1 mps 735 mmHg 86%
    21:00 +13°C° 0 mm 1 mps 735 mmHg 87%
    22:00 +13°C° 0 mm 1 mps 735 mmHg 88%
    23:00 +12°C° 0 mm 1 mps 735 mmHg 88%

    31 May, Sunday

    Time Temperature Precipitation Wind Pressure Humidity
    00:00 +12°C° 0 mm 1 mps 735 mmHg 88%
    01:00 +12°C° 0 mm 1 mps 735 mmHg 88%
    02:00 +12°C° 0 mm 1 mps 735 mmHg 87%
    03:00 +11°C° 0 mm 1 mps 735 mmHg 87%
    04:00 +11°C° 0 mm 1 mps 735 mmHg 87%
    05:00 +13°C° 0 mm 1 mps 735 mmHg 82%
    06:00 +14°C° 0 mm 1 mps 735 mmHg 77%
    07:00 +16°C° 0 mm 1 mps 735 mmHg 72%
    08:00 +18°C° 0 mm 1 mps 735 mmHg 67%
    09:00 +18°C° 0 mm 2 mps 735 mmHg 61%
    10:00 +19°C° 0 mm 2 mps 735 mmHg 55%
    11:00 +20°C° 0.3 mm 3 mps 735 mmHg 57%
    12:00 +20°C° 0.3 mm 4 mps 735 mmHg 58%
    13:00 +20°C° 0.3 mm 4 mps 735 mmHg 59%
    14:00 +19°C° 0.3 mm 4 mps 734 mmHg 60%
    15:00 +19°C° 0.3 mm 3 mps 734 mmHg 61%
    16:00 +19°C° 0.3 mm 3 mps 734 mmHg 63%
    17:00 +17°C° 0 mm 2 mps 734 mmHg 67%
    18:00 +16°C° 0 mm 2 mps 734 mmHg 72%
    19:00 +14°C° 0 mm 1 mps 734 mmHg 77%
    20:00 +14°C° 0 mm 1 mps 734 mmHg 78%
    21:00 +13°C° 0 mm 1 mps 735 mmHg 80%
    22:00 +11°C° 0 mm 0 mps 735 mmHg 81%
    23:00 +12°C° 0 mm 1 mps 735 mmHg 82%

    1 June, Monday

    Time Temperature Precipitation Wind Pressure Humidity
    00:00 +12°C° 0 mm 1 mps 735 mmHg 82%
    01:00 +12°C° 0 mm 1 mps 735 mmHg 83%
    02:00 +11°C° 0 mm 1 mps 735 mmHg 83%
    03:00 +11°C° 0 mm 1 mps 734 mmHg 83%
    04:00 +11°C° 0 mm 1 mps 734 mmHg 83%
    05:00 +13°C° 0 mm 1 mps 734 mmHg 78%
    06:00 +13°C° 0 mm 0 mps 735 mmHg 73%
    07:00 +15°C° 0 mm 0 mps 735 mmHg 68%
    08:00 +18°C° 0 mm 1 mps 735 mmHg 63%
    09:00 +20°C° 0 mm 1 mps 735 mmHg 58%
    10:00 +20°C° 0 mm 2 mps 735 mmHg 53%
    11:00 +20°C° 0.1 mm 2 mps 734 mmHg 53%
    12:00 +20°C° 0.1 mm 3 mps 734 mmHg 54%
    13:00 +21°C° 0.1 mm 3 mps 734 mmHg 54%
    14:00 +20°C° 0.2 mm 3 mps 734 mmHg 57%
    15:00 +20°C° 0.2 mm 3 mps 734 mmHg 60%
    16:00 +19°C° 0.2 mm 3 mps 733 mmHg 63%
    17:00 +18°C° 0.1 mm 2 mps 733 mmHg 70%
    18:00 +16°C° 0.1 mm 1 mps 733 mmHg 76%
    19:00 +15°C° 0.1 mm 1 mps 734 mmHg 82%
    20:00 +14°C° 0 mm 1 mps 734 mmHg 84%
    21:00 +13°C° 0 mm 1 mps 734 mmHg 85%
    22:00 +13°C° 0 mm 1 mps 734 mmHg 86%
    23:00 +13°C° 0 mm 1 mps 734 mmHg 86%
    Show more